Regional Weather Roundup
Issued by NWS Charleston, SC

Current Version | Previous Version | Graphics & Text | Print | Product List | Glossary On
Versions: 1 2 3 4 5 6 7 8 9 10 11 12 13 14 15 16 17 18 19 20 21 22 23 24 25 26 27 28 29 30 31 32 33 34 35 36 37 38 39 40 41 42 43 44 45 46 47 48 49 50
000 ASUS42 KCHS 232227 RWRCHS REGIONAL WEATHER ROUNDUP NATIONAL WEATHER SERVICE CHARLESTON SC 600 PM EDT MON OCT 23 2017 NOTE: "FAIR" INDICATES FEW OR NO CLOUDS BELOW 12,000 FEET WITH NO SIGNIFICANT WEATHER AND/OR OBSTRUCTIONS TO VISIBILITY. NOT ALL STATIONS ARE QUALITY CONTROLLED. USE DATA WITH CAUTION... ESPECIALLY DEWPOINT OBSERVATIONS. SCZ027-030-031-034>040-042>050-232300- ...SOUTHEAST SOUTH CAROLINA... CITY SKY/WX TMP DP RH WIND PRES REMARKS N CHARLESTON CLOUDY 76 74 93 S16 29.86F WATERFRONT PRK NOT AVBL JOHNS ISLAND MOCLDY 77 75 94 S17 29.87S FOG PINOPOLIS N/A 75 73 94 S5 29.78F MONCKS CORNER MOCLDY 73 72 94 S12 29.85R SUMMERVILLE LGT RAIN 73 72 94 SE8 29.85S BEAUFORT MCAS LGT RAIN 78 75 90 S9 29.84F BEAUFORT ARPT RAIN 77 72 83 S15G25 29.83F HILTON HEAD IS DRIZZLE 77 73 88 S13G23 29.87F WALTERBORO CLOUDY 73 72 94 S15G26 29.84S ALLENDALE DRIZZLE 75 73 94 VRB7 N/A ...SOUTHERN MIDLANDS AND PEE DEE... CITY SKY/WX TMP DP RH WIND PRES REMARKS GEORGETOWN LGT RAIN 73 73 100 S15G22 29.90F KINGSTREE CLOUDY 72 72 100 SE8G17 29.85F ORANGEBURG TSTM 73 71 93 E8 29.79F VSB 1/2 BARNWELL N/A 75 73 94 SW9G16 29.81S AIKEN CLOUDY 66 66 100 W6 29.86S MANNING FAIR 73 72 94 MISG 29.83F COLUMBIA LGT RAIN 71 70 96 W21G32 29.80F VSB 1 SUMTER MOCLDY 73 72 94 S13G20 29.79F FLORENCE LGT RAIN 73 72 96 S12 29.85F MYRTLE BEACH CLOUDY 77 71 82 S21 29.90F N MYRTLE BEACH CLOUDY 78 71 79 S13G22 29.91F $$ GAZ063-065-086>088-099>101-113>116-118-119-134>141-150-232300- ...SOUTHEAST GEORGIA... CITY SKY/WX TMP DP RH WIND PRES REMARKS SAVANNAH ARPT RAIN 76 74 93 S21G30 29.83F HUNTER AAF LGT RAIN 77 73 88 S23G31 29.83R FORT STEWART CLOUDY 75 72 88 S9G20 29.85R STATESBORO CLOUDY 75 69 81 W6 29.84R SYLVANIA TSTM 76 76 100 SW5 29.84R CLAXTON FAIR 74 73 93 SW7 29.85F ...CSRA...CENTRAL AND FAR SOUTHEAST GEORGIA... CITY SKY/WX TMP DP RH WIND PRES REMARKS THOMSON CLEAR 70 64 82 NW5 29.88F AUGUSTA-BUSH PTCLDY 73 68 84 W6 29.82S AUGUSTA-DANIEL PTCLDY 72 67 84 VRB6 29.84S SWAINSBORO FAIR 72 72 100 W5 29.87R VIDALIA PTCLDY 73 70 88 W3 29.86R EASTMAN FAIR 75 53 45 W6 29.89S HAZLEHURST MOCLDY 76 70 80 NW3 29.86R ALMA PTCLDY 79 72 79 SW6 29.86S WAYCROSS PTCLDY 76 73 90 SW6 29.87R JESUP NOT AVBL BAXLEY FAIR 77 75 94 SW5 29.86S BRUNSWICK CLOUDY 75 72 88 S6 29.90S SAINT SIMONS CLOUDY 77 76 96 SW6 29.89S $$ SCZ027-028-034-036>038-045-046-048>050-GAZ119-141-232300- ...LAKE AND SUPPLEMENTAL COASTAL OBSERVATIONS... STATION/POSITION TIME TEMP WIND PRES WAVE SWELL AIR SEA DIR/SP/G HT/PER HT/PER/DIR (UTC) (F) (DEG/KT/KT) (MB) (FT/S) (FT/S/D) WINYAH BAY 2130 77 160/ 13 1013.0F LAKE MURRAY 2130 73 160/ 16/ 25 1007.8F ACE BASIN NERRS 2145 77 150/ 4 1011.0F FORT PULASKI 2200 78 74 170/ 11/ 16 1010.8 SAPELO ISLAND NOT AVBL $$ ANZ835-935-AMZ111-154-330-350-352-354-370-450-454-472-232300- ...C-MAN AND BUOY OBSERVATIONS... STATION/POSITION TIME TEMP WIND PRES WAVE SWELL AIR SEA DIR/SP/G HT/PER HT/PER/DIR (UTC) (F) (DEG/KT/KT) (MB) (FT/S) (FT/S/D) BUOY 41004 2210 80 79 160/ 25/ 31 1011.9 BUOY 41008 2050 79 77 160/ 21/ 25 1011.4 6/ 8 FOLLY BEACH CMAN 2200 77 160/ 20/ 23 1011.9F CAPERS NEARSHORE 2208 75 73 170/ 17/ 23 1011.2F FRIPP NEARSHORE 2208 77 170/ 17/ 25 N/A STATION/POSITION TIME TEMP WIND PRES WAVE SWELL AIR SEA DIR/SP/G HT/PER HT/PER/DIR (UTC) (F) (DEG/KT/KT) (MB) (FT/S) (FT/S/D) 5E ST. MARYS GA 2200 77 N/A 6/ 6 FRYING PAN BUOY 2210 79 78 160/ 21/ 27 1014.1 BUOY 41025 2150 79 80 150/ 21/ 25 1017.0F 6/ 6 2/100/ 9 CAPE LOOKOUT NC 2200 76 140/ 20/ 22 1015.3F BUOY 41002 2150 78 80 130/ 17/ 19 1018.1F 5/ 5 2/100/ 8 BUOY 41010 NOT AVBL ST AUGUSTINE FL 2200 80 79 160/ 18/ 21 1012.8S $$

USA.gov is the U.S. government's official web portal to all federal, state and local government web resources and services.